Lamar, CO

4:41 PM MDT on May 26, 2017 (GMT -0600)
Lamar Municipal

Weather History for KLAA - June, 2013

Change the Weather History Date:

Monday, June 17, 2013

  Actual Average Record
Temperature  
Mean Temperature 72 °F 72 °F  
Max Temperature 90 °F 88 °F 104 °F (1937)
Min Temperature 54 °F 57 °F 36 °F (1992)
Degree Days  
Heating Degree Days 0 0  
Month to date heating degree days 16 19  
Since 1 June heating degree days 16 19  
Since 1 July heating degree days 5506 5559  
Cooling Degree Days 7 8  
Month to date cooling degree days 174 100  
Year to date cooling degree days 315 160  
Since 1 June cooling degree days 174 100  
Growing Degree Days 22 (Base 50)    
Moisture  
Dew Point 55 °F    
Average Humidity 63    
Maximum Humidity 100    
Minimum Humidity 26    
Precipitation  
Precipitation 1.84 in 0.08 in 1.95 in (1965)
Month to date precipitation 2.10  
Year to date precipitation 2.67  
Sea Level Pressure  
Sea Level Pressure 30.01 in    
Wind  
Wind Speed 10 mph (ESE)    
Max Wind Speed 36 mph    
Max Gust Speed 44 mph    
Visibility 7 miles    
Events Fog , Rain , Thunderstorm    
T = Trace of Precipitation, MM = Missing Value Source: NWS Daily Summary

Daily Weather History Graph

Daily Weather History Graph

Search for Another Location

Airport or City:

Trip Planner

Search our weather history database for the weather conditions in past years. The results will help you decide how hot, cold, wet, or windy it might be!

Date:

Astronomy

Jun. 17, 2013 Rise Set
Actual Time 5:27 AM MDT 8:16 PM MDT
Civil Twilight 4:56 AM MDT 8:47 PM MDT
Nautical Twilight 4:16 AM MDT 9:27 PM MDT
Astronomical Twilight 3:31 AM MDT 10:12 PM MDT
Moon 2:01 PM MDT (6/17) 12:59 AM MDT (6/17)
Length of Visible Light 15h 51m
Length of Day
14h 48m
First Quarter, 61% of the Moon is Illuminated
Jun 17
First Quarter
Jun 23
Full
Jun 29
Last Quarter
Jul 8
New
Jul 15
First Quarter

Hourly Weather History & Observations

Time (MDT) Temp. Heat Index Dew Point Humidity Pressure Visibility Wind Dir Wind Speed Gust Speed Precip Events Conditions
12:53 AM 61.0 °F - 57.9 °F 90% 29.89 in 10.0 mi SSW 3.5 mph - N/A   Clear
1:53 AM 59.0 °F - 57.0 °F 93% 29.89 in 9.0 mi Calm Calm - N/A   Clear
2:53 AM 57.9 °F - 55.9 °F 93% 29.90 in 7.0 mi Calm Calm - N/A   Clear
3:53 AM 57.9 °F - 55.0 °F 90% 29.94 in 10.0 mi ESE 5.8 mph - N/A   Clear
4:53 AM 55.9 °F - 54.0 °F 93% 29.95 in 8.0 mi ENE 5.8 mph - N/A   Clear
5:53 AM 55.9 °F - 55.0 °F 97% 30.02 in 7.0 mi Calm Calm - 0.01 in   Clear
6:53 AM 60.1 °F - 57.0 °F 90% 30.00 in 7.0 mi Calm Calm - N/A   Clear
7:53 AM 62.1 °F - 59.0 °F 90% 30.03 in 5.0 mi East 5.8 mph - N/A   Clear
8:53 AM 68.0 °F - 57.9 °F 70% 30.02 in 10.0 mi ESE 4.6 mph - N/A   Clear
9:53 AM 72.0 °F - 61.0 °F 68% 30.00 in 10.0 mi ESE 8.1 mph - N/A   Clear
10:53 AM 75.0 °F - 62.1 °F 64% 29.99 in 7.0 mi ENE 10.4 mph - N/A   Clear
11:53 AM 80.1 °F 80.6 °F 57.9 °F 47% 29.97 in 9.0 mi East 10.4 mph - N/A   Clear
12:53 PM 82.9 °F 81.9 °F 54.0 °F 37% 29.96 in 10.0 mi East 11.5 mph - N/A   Clear
1:53 PM 86.0 °F - 50.0 °F 29% 29.93 in 10.0 mi SE 12.7 mph 23.0 mph N/A   Clear
2:53 PM 87.1 °F - 50.0 °F 28% 29.90 in 10.0 mi ESE 9.2 mph 19.6 mph N/A   Clear
3:53 PM 88.0 °F - 48.9 °F 26% 29.86 in 10.0 mi ESE 15.0 mph 23.0 mph N/A   Clear
4:53 PM 87.1 °F - 48.9 °F 27% 29.89 in 10.0 mi ESE 13.8 mph 20.7 mph N/A   Clear
5:48 PM 82.4 °F - 51.8 °F 35% 29.98 in 10.0 mi ESE 20.7 mph 26.5 mph N/A Thunderstorm Partly Cloudy
5:53 PM 82.9 °F - 52.0 °F 34% 29.86 in 10.0 mi ESE 17.3 mph 26.5 mph N/A Thunderstorm Thunderstorm
6:33 PM 64.4 °F - 55.4 °F 73% 30.15 in 1.5 mi NW 31.1 mph 40.3 mph 0.19 in Rain , Thunderstorm Heavy Thunderstorms and Rain
6:37 PM 60.8 °F - 55.4 °F 82% 30.12 in 1.0 mi NW 31.1 mph 40.3 mph 0.30 in Rain , Thunderstorm Heavy Thunderstorms and Rain
6:44 PM 60.8 °F - 57.2 °F 88% 30.20 in 0.8 mi North 25.3 mph 40.3 mph 0.55 in Rain , Thunderstorm Heavy Thunderstorms and Rain
6:53 PM 55.0 °F - 53.1 °F 93% 30.10 in 0.5 mi North 24.2 mph 36.8 mph 1.10 in Fog , Rain , Thunderstorm Heavy Thunderstorms and Rain
6:56 PM 55.4 °F - 53.6 °F 94% 30.16 in 0.5 mi NE 17.3 mph 36.8 mph 0.07 in Fog , Rain , Thunderstorm Heavy Thunderstorms and Rain
7:01 PM 59.0 °F - 55.4 °F 88% 30.15 in 0.8 mi ESE 23.0 mph 34.5 mph 0.39 in Rain , Thunderstorm Heavy Thunderstorms and Rain
7:07 PM 60.8 °F - 53.6 °F 77% 30.10 in 0.8 mi ESE 21.9 mph 34.5 mph 0.62 in Rain , Thunderstorm Heavy Thunderstorms and Rain
7:12 PM 60.8 °F - 55.4 °F 82% 30.07 in 1.2 mi ESE 26.5 mph 34.5 mph 0.66 in Rain , Thunderstorm Heavy Thunderstorms and Rain
7:14 PM 60.8 °F - 53.6 °F 77% 30.06 in 2.0 mi ESE 35.7 mph 43.7 mph 0.67 in Rain , Thunderstorm Heavy Thunderstorms and Rain
7:22 PM 64.4 °F - 55.4 °F 73% 30.07 in 5.0 mi SE 28.8 mph 43.7 mph 0.69 in Rain , Thunderstorm Light Thunderstorms and Rain
7:53 PM 64.9 °F - 54.0 °F 68% 29.99 in 9.0 mi SSE 18.4 mph 25.3 mph 0.70 in Rain , Thunderstorm Light Rain
8:28 PM 62.6 °F - 53.6 °F 72% 30.03 in 8.0 mi SSE 32.2 mph - 0.03 in Rain Light Rain
8:53 PM 63.0 °F - 54.0 °F 72% 29.96 in 10.0 mi SSE 24.2 mph 28.8 mph 0.03 in   Overcast
9:21 PM 62.6 °F - 55.4 °F 77% 30.12 in 10.0 mi East 19.6 mph 24.2 mph N/A   Scattered Clouds
9:53 PM 63.0 °F - 57.0 °F 81% 30.02 in 10.0 mi SE 17.3 mph - N/A   Partly Cloudy
10:53 PM 64.0 °F - 54.0 °F 70% 29.97 in 10.0 mi SSE 19.6 mph - N/A   Clear
11:53 PM 64.0 °F - 55.0 °F 73% 29.98 in 10.0 mi WNW 6.9 mph - N/A   Partly Cloudy